Miscellaneous Local Product
Issued by NWS Hastings, NE

Home | Current Version | Previous Version | Text Only | Print | Product List | Glossary Off
Versions: 1 2 3 4 5 6 7 8 9 10 11 12 13 14 15 16 17 18 19 20 21 22 23 24 25 26 27 28 29 30 31 32 33 34 35 36 37 38 39 40 41 42 43 44 45 46 47 48 49 50

778
AXUS43 KGID 102102
MISGRI

GID CWA HOURLY WEATHER ROUNDUP
NATIONAL WEATHER SERVICE HASTINGS NE
300 PM CST SAT DEC 10 2016

NOTE: "FAIR" INDICATES FEW OR NO CLOUDS BELOW 12,000 FEET WITH NO
SIGNIFICANT WEATHER AND/OR OBSTRUCTIONS TO VISIBILITY.

...SOUTH CENTRAL NEBRASKA...

CITY           SKY/WX    TMP DP  RH WIND       PRES   REMARKS
GRAND ISLAND   CLOUDY    31  20  63 S18G24    29.96F WCI  19
HASTINGS       CLOUDY    33  18  53 S18G24    29.96F WCI  22
KEARNEY        CLOUDY    32  19  59 S20       29.93F WCI  20
ORD            CLOUDY    30  17  58 S12G23    29.91F WCI  20
YORK           CLOUDY    32  16  51 S18       29.99F WCI  20
AURORA         CLOUDY    32  18  56 S15G25    29.97F WCI  22
LEXINGTON      CLOUDY    31  21  65 S14       29.89F WCI  21
HOLDREGE       CLOUDY    32  20  62 S16G23    29.92F WCI  21
HEBRON         CLOUDY    35  19  52 S14       30.03F WCI  25

...NEBRASKA PANHANDLE...

CITY           SKY/WX    TMP DP  RH WIND       PRES   REMARKS
CHADRON        CLOUDY    16   9  74 NE5       29.74F WCI   9
ALLIANCE       CLOUDY    30  21  69 S12       29.70F WCI  20
SCOTTSBLUFF    CLOUDY    28  19  69 E5        29.71F WCI  23
SIDNEY         CLOUDY    34  24  67 S13       29.73F WCI  25

...WESTERN AND NORTH CENTRAL NEBRASKA...

CITY           SKY/WX    TMP DP  RH WIND       PRES   REMARKS
VALENTINE      CLOUDY    18  13  80 NE7       29.83F WCI   9
AINSWORTH      CLOUDY    27  22  82 SE10      29.83F WCI  17
ONEILL         CLOUDY    26  21  83 SE9       29.93F WCI  16
BROKEN BOW     CLOUDY    30  21  69 S20G25    29.87F WCI  17
IMPERIAL       CLOUDY    29  22  75 S8        29.83F WCI  21
NORTH PLATTE   CLOUDY    30  21  69 SW10      29.86F WCI  21
MCCOOK         CLOUDY    33  24  69 S10       29.86F WCI  25

...EASTERN NEBRASKA...

CITY           SKY/WX    TMP DP  RH WIND       PRES   REMARKS
NORFOLK        CLOUDY    26  18  71 SE16G24   30.00F WCI  14
SO SIOUX CITY  CLOUDY    27  20  75 SE20      30.10F WCI  13
TEKAMAH        CLOUDY    27  20  75 E15       30.12F WCI  15
COLUMBUS       CLOUDY    30  16  55 SE17G24   30.02F WCI  18
ALBION         CLOUDY    29  19  64 SE17G25   29.97F WCI  17
OMAHA EPPLEY   CLOUDY    30  15  53 SE14      30.13F WCI  19
OFFUTT AFB     CLOUDY    31  15  53 SE15      30.12F WCI  20
MILLARD        CLOUDY    32  18  55 SE9       30.11F WCI  24
LINCOLN        CLOUDY    33  16  49 SE17      30.08F WCI  22
NEBRASKA CITY  CLOUDY    32  10  40 S15       30.11F WCI  22
BEATRICE       CLOUDY    34  17  48 SE14G20   30.06F WCI  25
FALLS CITY     CLOUDY    34  17  50 SE13      30.13F WCI  25

...NORTHERN KANSAS...

CITY           SKY/WX    TMP DP  RH WIND       PRES   REMARKS
GOODLAND       CLOUDY    36  25  64 SE14      29.77F WCI  27
HILL CITY      CLOUDY    38  24  57 S16       29.90F WCI  29
NORTON         CLEAR     36  19  51 SE12G23   29.89F WCI  27
PHILLIPSBURG   SUNNY     39  25  56 SE16      29.94F WCI  30
SMITH CENTER   SUNNY     37  23  56 SE16      29.97F WCI  28
BELOIT         MOSUNNY   39  21  48 SE16      30.00F WCI  30
HAYS           CLOUDY    39  24  55 S15       29.94F WCI  31
RUSSELL        CLOUDY    40  24  53 S22G30    29.95F WCI  30
CONCORDIA      CLOUDY    38  22  52 S13       30.02F WCI  30
SALINA         CLOUDY    42  23  46 S21       30.04F
TOPEKA         CLOUDY    37  22  54 SE16      30.13F WCI  28



USA.gov is the U.S. government's official web portal to all federal, state and local government web resources and services.